Meteo Giornale » Osservazioni meteo Stati Uniti (USA) » Crestview Sikes
ore: 19:53 - Osservazioni Meteo Crestview Sikes
Lat. 30° 46' N Lon. 86° 31' W Alt. 65 metri s.l.m.
28 °C
Sereno
Temp. 24 Ore
23 °C
33 °C
Nord
5.5 Km/h
Dew point 25 °C
Umidità 83 %
Visibilità 10 Km
Il sole sorge alle ore 06:22
Il sole tramonta alle ore 19:10
| Data e Ora | Cielo e Fenomeni | T °C | DP °C | Um. % | Pres. hPa | Vis. km | Vento km/h | |
|---|---|---|---|---|---|---|---|---|
| Oggi h: 19:53 | Sereno | 28 | 25 | 83 | 1017 | 10 | N 5.5 | |
| Oggi h: 18:53 | Sereno | 29 | 24 | 74 | 1017 | 10 | S/SO 11.1 | |
| Oggi h: 17:53 | Sereno | 32 | 24 | 62 | 1017 | 10 | N 5.5 | |
| Oggi h: 16:53 | Sereno | 33 | 23 | 55 | 1017 | 10 | E 9.3 | |
| Oggi h: 15:53 | Sereno | 33 | 23 | 55 | 1017 | 10 | N 0 | |
| Oggi h: 14:53 | Sereno | 33 | 22 | 52 | 1018 | 10 | E 9.3 | |
| Oggi h: 13:53 | Sereno | 33 | 22 | 52 | 1018 | 10 | N 0 | |
| Oggi h: 12:53 | Nuvoloso | 32 | 23 | 59 | 1019 | 10 | N 5.5 | |
| Oggi h: 11:53 | Poco Nuvoloso | 32 | 23 | 59 | 1019 | 10 | N 5.5 | |
| Oggi h: 10:53 | Poco Nuvoloso | 31 | 24 | 66 | 1020 | 10 | N 5.5 | |
| Oggi h: 09:53 | Sereno | 29 | 24 | 74 | 1020 | 10 | N 0 | |
| Oggi h: 08:53 | Sereno | 27 | 24 | 83 | 1019 | 10 | N 5.5 | |
| Oggi h: 08:35 | Poco Nuvoloso | 26 | 24 | 88 | 1019 | 10 | N 7.4 | |
| Oggi h: 07:53 | Sereno | 25 | 23 | 88 | 1019 | 10 | E/NE 9.3 | |
| Oggi h: 06:53 | Sereno | 23 | 23 | 100 | 1019 | 13 | N 0 | |
| Oggi h: 05:53 | Sereno | 23 | 22 | 94 | 1018 | 14 | N 0 | |
| Oggi h: 04:53 | Sereno | 23 | 22 | 94 | 1017 | 14 | N 0 | |
| Oggi h: 03:53 | Sereno | 23 | 22 | 94 | 1017 | 13 | N 0 | |
| Oggi h: 02:53 | Sereno | 23 | 23 | 100 | 1017 | 13 | N 0 | |
| Oggi h: 01:53 | Sereno | 23 | 23 | 100 | 1018 | 14 | N 0 | |
| Oggi h: 00:53 | Sereno | 23 | 23 | 100 | 1018 | 11 | N 0 | |
| Ieri h: 23:53 | Sereno | 24 | 23 | 94 | 1018 | 11 | N 0 | |
| Ieri h: 22:53 | Sereno | 24 | 24 | 100 | 1018 | 11 | N 0 | |
| Ieri h: 21:53 | Poco Nuvoloso | 25 | 24 | 94 | 1018 | 10 | N 0 | |
| Ieri h: 20:53 | Sereno | 25 | 24 | 94 | 1018 | 10 | N 0 | |



